Regional Weather Roundup
Issued by NWS Goodland, KS

Home | Current Version | Previous Version | Graphics & Text | Print | Product List | Glossary On
Versions: 1 2 3 4 5 6 7 8 9 10 11 12 13 14 15 16 17 18 19 20 21 22 23 24 25 26 27 28 29 30 31 32 33 34 35 36 37 38 39 40 41 42 43 44 45 46 47 48 49 50
000
ASUS43 KGLD 210508
RWRGLD

GOODLAND FORECAST AREA HOURLY WEATHER ROUNDUP
NATIONAL WEATHER SERVICE GOODLAND KS
1100 PM MDT SUN APR 20 2014

...OFFICIAL OBSERVATIONS...

CITY           SKY/WX    TMP DP  RH WIND       PRES   REMARKS
GOODLAND KS    PTCLDY    51  45  79 CALM      30.00S
HILL CITY KS   CLOUDY    60  56  86 S5        29.97F
IMPERIAL NEB   CLEAR     58  45  62 S3G16     29.99R
MCCOOK NEB     CLOUDY    58  53  84 S8        29.97S
AKRON CO       CLEAR     53  36  52 NW3       30.06R
BURLINGTON CO  CLEAR     48  40  73 CALM      30.03S
LIMON CO       CLEAR     47  36  65 W7        30.11R
$$

...UNOFFICIAL OBSERVATIONS...

CITY           SKY/WX    TMP DP  RH WIND       PRES   REMARKS
COLBY KS       CLEAR     55  55 100 S3        29.99S
LENORA KS        N/A     57  32  39 S14         N/A
LEOTI KS         N/A     59  32  36 CALM        N/A
NORTON KS      CLEAR     54  50  87 S7        29.95F
OBERLIN KS     FAIR      55  54  94 S7        29.97R
SHARON SPRINGS   N/A     53  43  70 CALM        N/A
ST FRANCIS KS  CLEAR     52  45  76 SW8       29.99
TRIBUNE KS     PTCLDY    54  48  82 SW3       30.01R
WAKEENEY KS      N/A     60  58  94 MISG        N/A
KIT CARSON CO    N/A     48  40  73 MISG        N/A
WRAY CO        HAZE      52  45  76 W7        30.00F VSB 3/4
$$



USA.gov is the U.S. government's official web portal to all federal, state and local government web resources and services.